Погода в Магуэ

Мьянма     20°07′36″N   94°55′59″E
темп.,
°C
ветер,
м/с
пор.,
м/с
влажн.,
%
обл.,
%
осадки,
мм/ч
давл.,
гПа
погр.,
м
12 апреля, пн
пн1200:30+29ююз35536 0.0 1010199
03:30+27ю24582 0.0 1009118
06:30+27ююв255784 0.0 1011193
09:30+34ю45346 0.0 10131077
12:30+38юз332199 0.0 10092466
15:30+40зсз241713 0.0 10053146
18:30+38ююз132061 0.0 1005196
21:30+32зюз5745100 0.0 1009361
13 апреля, вт
вт1300:30+30ююз36536 0.0 1009275
03:30+29ююв48534 0.0 1008331
06:30+28ююв485325 0.0 1010388
09:30+34ю45335 0.0 10111050
12:30+39ююз33212 0.0 10082188
15:30+40ююв241626 0.0 10043316
18:30+37юз57265 0.0 1005549
21:30+31зюз59496 0.0 1008415
14 апреля, ср
ср1400:30+29юз35535 0.0 1008240
03:30+28ю23519 0.0 100773
06:30+27ююв364915 0.0 1009225
09:30+34ю45314 0.0 1011970
12:30+39ю32205 0.0 10082556
15:30+40сз24141 0.0 10043784
18:30+38з35181 0.0 1003198
21:30+31зюз58464 0.0 1006354
15 апреля, чт
чт1500:30+29юз47485 0.0 1007317
03:30+27ююв47463 0.0 1007209
06:30+26ю47572 0.0 1008285
09:30+32ююз33310 0.0 1010922
12:30+38юз33170 0.0 10071744
15:30+40ююв12130 0.0 10033013
18:30+37юз582015 0.0 1003475
21:30+30зюз59513 0.0 1006370
16 апреля, пт
пт1600:30+28ю45586 0.0 1007456
03:30+27ю46617 0.0 1007338
06:30+26ююв4669100 0.0 1008322
09:30+32ю44425 0.0 10101039
12:30+38юз342321 0.0 10072048
15:30+40зсз151715 0.0 10023313
18:30+33ссз6933100 0.1 1004555
21:30+31зсз4740100 0.0 1007461